FAD384 OERK-OEDF

Flight info

Callsign FAD384
Flight time 0h 41m
Altitude 27000
Route OERK/33R N0398F270 ALTA1D ALTAV H976 MUSRI L604 UMENA UMEN2J OEDF/34L
Aircraft A20N/M-SDE2E3FGHIRWXY/LB1

Departure

Time 2026-04-29 04:56
Airport King Khalid International Airport (OERK)

Arrival

Time 2026-04-29 05:38
Airport King Fahd International Airport (OEDF)
Time Latitude Longitude Altitude Speed Heading
2026-04-29 04:31 24.95457 46.70845 2034 ft 0 kts 240°
2026-04-29 04:42 24.95463 46.70856 2034 ft 4 kts 238°
2026-04-29 04:43 24.95477 46.70881 2043 ft 4 kts 232°
2026-04-29 04:43 24.95495 46.70903 2041 ft 4 kts 215°
2026-04-29 04:43 24.95517 46.70913 2038 ft 4 kts 161°
2026-04-29 04:43 24.95522 46.70911 2041 ft 1 kts 150°
2026-04-29 04:49 24.95518 46.70913 2038 ft 1 kts 150°
2026-04-29 04:49 24.95506 46.70921 2037 ft 3 kts 151°
2026-04-29 04:49 24.95485 46.70933 2037 ft 4 kts 151°
2026-04-29 04:49 24.95458 46.70950 2037 ft 5 kts 151°
2026-04-29 04:50 24.95423 46.70971 2040 ft 6 kts 151°
2026-04-29 04:50 24.95383 46.70997 2034 ft 7 kts 149°
2026-04-29 04:50 24.95340 46.71029 2040 ft 8 kts 133°
2026-04-29 04:50 24.95338 46.71089 2039 ft 10 kts 70°
2026-04-29 04:51 24.95377 46.71165 2042 ft 13 kts 58°
2026-04-29 04:51 24.95420 46.71263 2038 ft 14 kts 90°
2026-04-29 04:51 24.95340 46.71342 2036 ft 19 kts 150°
2026-04-29 04:51 24.95200 46.71431 2035 ft 27 kts 150°
2026-04-29 04:52 24.95015 46.71547 2037 ft 34 kts 150°
2026-04-29 04:52 24.94793 46.71687 2037 ft 40 kts 149°
2026-04-29 04:52 24.94561 46.71832 2041 ft 39 kts 150°
2026-04-29 04:52 24.94323 46.71984 2038 ft 28 kts 140°
2026-04-29 04:53 24.94334 46.72123 2042 ft 13 kts 60°
2026-04-29 04:53 24.94339 46.72132 2044 ft 0 kts 60°
2026-04-29 04:54 24.94339 46.72133 2044 ft 1 kts 60°
2026-04-29 04:54 24.94356 46.72166 2043 ft 8 kts 60°
2026-04-29 04:55 24.94397 46.72236 2036 ft 12 kts 37°
2026-04-29 04:55 24.94469 46.72237 2040 ft 7 kts 329°
2026-04-29 04:55 24.94471 46.72236 2036 ft 0 kts 328°
2026-04-29 04:55 24.94633 46.72132 2038 ft 73 kts 330°
2026-04-29 04:56 24.95386 46.71660 2045 ft 171 kts 331°
2026-04-29 04:56 24.96523 46.70907 2606 ft 204 kts 330°
2026-04-29 04:56 24.97830 46.70129 3381 ft 222 kts 342°
2026-04-29 04:56 24.99329 46.69488 4115 ft 234 kts 345°
2026-04-29 04:57 25.00858 46.68888 5183 ft 232 kts 344°
2026-04-29 04:57 25.02364 46.68301 6324 ft 226 kts 343°
2026-04-29 04:57 25.03820 46.67732 7430 ft 218 kts 340°
2026-04-29 04:57 25.05215 46.67186 8590 ft 206 kts 338°
2026-04-29 04:58 25.06518 46.66674 9691 ft 202 kts 336°
2026-04-29 04:58 25.07861 46.66142 10574 ft 207 kts 335°
2026-04-29 04:58 25.09268 46.65710 11455 ft 216 kts 352°
2026-04-29 04:58 25.10779 46.65928 12348 ft 223 kts 12°
2026-04-29 04:59 25.12277 46.66458 13229 ft 229 kts 15°
2026-04-29 04:59 25.13798 46.67055 14061 ft 234 kts 15°
2026-04-29 04:59 25.15348 46.67664 14839 ft 239 kts 14°
2026-04-29 04:59 25.16937 46.68271 15616 ft 244 kts 11°
2026-04-29 05:00 25.18589 46.68688 16389 ft 243 kts 358°
2026-04-29 05:00 25.20257 46.68664 17205 ft 237 kts 341°
2026-04-29 05:00 25.21858 46.68275 18037 ft 235 kts 334°
2026-04-29 05:00 25.23431 46.67783 18781 ft 236 kts 332°
2026-04-29 05:01 25.25020 46.67266 19485 ft 240 kts 332°
2026-04-29 05:01 25.26638 46.66742 20199 ft 245 kts 332°
2026-04-29 05:01 25.28361 46.66246 20621 ft 271 kts 339°
2026-04-29 05:01 25.30364 46.66130 20949 ft 308 kts 358°
2026-04-29 05:02 25.32547 46.66795 21277 ft 345 kts 21°
2026-04-29 05:02 25.34557 46.68435 21617 ft 376 kts 46°
2026-04-29 05:02 25.36194 46.70794 21972 ft 398 kts 55°
2026-04-29 05:02 25.37769 46.73401 22324 ft 418 kts 57°
2026-04-29 05:03 25.39441 46.76111 22660 ft 436 kts 53°
2026-04-29 05:03 25.41310 46.78826 23149 ft 449 kts 52°
2026-04-29 05:03 25.43254 46.81562 23720 ft 456 kts 51°
2026-04-29 05:03 25.45237 46.84337 24265 ft 463 kts 51°
2026-04-29 05:04 25.47247 46.87148 24809 ft 469 kts 50°
2026-04-29 05:04 25.49280 46.89993 25353 ft 474 kts 50°
2026-04-29 05:04 25.51336 46.92871 25906 ft 479 kts 50°
2026-04-29 05:04 25.53412 46.95780 26436 ft 484 kts 50°
2026-04-29 05:05 25.55509 46.98721 26790 ft 488 kts 49°
2026-04-29 05:05 25.57613 47.01674 26888 ft 489 kts 49°
2026-04-29 05:05 25.59724 47.04639 26893 ft 491 kts 49°
2026-04-29 05:05 25.61842 47.07616 26889 ft 492 kts 49°
2026-04-29 05:06 25.63960 47.10595 26890 ft 493 kts 50°
2026-04-29 05:06 25.66081 47.13579 26889 ft 493 kts 50°
2026-04-29 05:06 25.68202 47.16567 26890 ft 493 kts 50°
2026-04-29 05:06 25.70320 47.19551 26891 ft 493 kts 49°
2026-04-29 05:07 25.72439 47.22540 26889 ft 494 kts 49°
2026-04-29 05:07 25.74449 47.25631 26884 ft 496 kts 60°
2026-04-29 05:07 25.75711 47.29175 26889 ft 494 kts 78°
2026-04-29 05:07 25.76049 47.32930 26887 ft 487 kts 97°
2026-04-29 05:08 25.75477 47.36577 26888 ft 477 kts 111°
2026-04-29 05:08 25.74627 47.40140 26875 ft 481 kts 107°
2026-04-29 05:08 25.74388 47.43867 26880 ft 491 kts 89°
2026-04-29 05:08 25.75085 47.47585 26882 ft 495 kts 70°
2026-04-29 05:09 25.76067 47.49920 26881 ft 495 kts 58°
2026-04-29 05:09 25.78183 47.52897 26882 ft 490 kts 40°
2026-04-29 05:09 25.80908 47.55076 26881 ft 478 kts 21°
2026-04-29 05:09 25.83942 47.56275 26881 ft 462 kts
2026-04-29 05:10 25.87119 47.56448 26881 ft 442 kts 345°
2026-04-29 05:10 25.89970 47.55617 26881 ft 420 kts 326°
2026-04-29 05:10 25.92347 47.53905 26884 ft 398 kts 308°
2026-04-29 05:10 25.94063 47.51585 26886 ft 384 kts 295°
2026-04-29 05:11 25.95425 47.49049 26895 ft 385 kts 296°
2026-04-29 05:11 25.97314 47.46853 26891 ft 405 kts 314°
2026-04-29 05:11 25.99855 47.45342 26890 ft 426 kts 331°
2026-04-29 05:11 26.02823 47.44686 26890 ft 446 kts 348°
2026-04-29 05:12 26.05973 47.44977 26892 ft 464 kts
2026-04-29 05:12 26.09040 47.46238 26892 ft 479 kts 22°
2026-04-29 05:12 26.11766 47.48418 26889 ft 489 kts 40°
2026-04-29 05:12 26.13918 47.51378 26893 ft 494 kts 56°
2026-04-29 05:13 26.15717 47.54639 26890 ft 495 kts 59°
2026-04-29 05:13 26.17384 47.57997 26886 ft 496 kts 61°
2026-04-29 05:13 26.19085 47.61327 26881 ft 495 kts 53°
2026-04-29 05:13 26.21315 47.64213 26884 ft 489 kts 38°
2026-04-29 05:14 26.23955 47.66574 26900 ft 488 kts 36°
2026-04-29 05:14 26.26346 47.69284 26889 ft 493 kts 49°
2026-04-29 05:14 26.28169 47.72517 26883 ft 495 kts 65°
2026-04-29 05:14 26.29341 47.76113 26885 ft 494 kts 74°
2026-04-29 05:15 26.30271 47.79795 26884 ft 494 kts 77°
2026-04-29 05:15 26.31060 47.83514 26884 ft 493 kts 79°
2026-04-29 05:15 26.31785 47.87245 26885 ft 493 kts 80°
2026-04-29 05:15 26.32494 47.90983 26872 ft 493 kts 80°
2026-04-29 05:16 26.33207 47.94718 26875 ft 493 kts 80°
2026-04-29 05:16 26.33936 47.98462 26875 ft 494 kts 79°
2026-04-29 05:16 26.34677 48.02200 26879 ft 494 kts 79°
2026-04-29 05:16 26.35429 48.05941 26876 ft 494 kts 79°
2026-04-29 05:17 26.36186 48.09677 26876 ft 494 kts 79°
2026-04-29 05:17 26.36944 48.13413 26875 ft 494 kts 79°
2026-04-29 05:17 26.37700 48.17150 26876 ft 494 kts 79°
2026-04-29 05:17 26.38454 48.20888 26876 ft 494 kts 79°
2026-04-29 05:18 26.39208 48.24627 26867 ft 494 kts 79°
2026-04-29 05:18 26.39961 48.28371 26873 ft 495 kts 79°
2026-04-29 05:18 26.40714 48.32113 26870 ft 495 kts 79°
2026-04-29 05:18 26.41465 48.35855 26870 ft 495 kts 79°
2026-04-29 05:19 26.42215 48.39603 26872 ft 495 kts 79°
2026-04-29 05:19 26.42964 48.43348 26870 ft 495 kts 79°
2026-04-29 05:19 26.43712 48.47092 26828 ft 493 kts 79°
2026-04-29 05:19 26.44453 48.50801 26429 ft 483 kts 79°
2026-04-29 05:20 26.45171 48.54395 25874 ft 469 kts 79°
2026-04-29 05:20 26.45873 48.57918 25195 ft 461 kts 80°
2026-04-29 05:20 26.46559 48.61373 24573 ft 452 kts 80°
2026-04-29 05:20 26.47206 48.64766 23966 ft 441 kts 84°
2026-04-29 05:21 26.47340 48.68115 23362 ft 425 kts 99°
2026-04-29 05:21 26.47047 48.71349 22696 ft 413 kts 103°
2026-04-29 05:21 26.46680 48.74486 22107 ft 403 kts 103°
2026-04-29 05:21 26.46307 48.77573 21550 ft 401 kts 103°
2026-04-29 05:22 26.45938 48.80652 20987 ft 399 kts 103°
2026-04-29 05:22 26.45578 48.83702 20430 ft 395 kts 103°
2026-04-29 05:22 26.45223 48.86726 19875 ft 389 kts 102°
2026-04-29 05:22 26.44878 48.89690 19324 ft 381 kts 102°
2026-04-29 05:23 26.44535 48.92614 18777 ft 380 kts 102°
2026-04-29 05:23 26.44192 48.95540 18230 ft 380 kts 101°
2026-04-29 05:23 26.43851 48.98450 17616 ft 376 kts 101°
2026-04-29 05:23 26.43514 49.01325 17072 ft 372 kts 101°
2026-04-29 05:24 26.43178 49.04190 16534 ft 372 kts 101°
2026-04-29 05:24 26.42841 49.07049 15997 ft 371 kts 101°
2026-04-29 05:24 26.42505 49.09903 15459 ft 371 kts 101°
2026-04-29 05:24 26.42169 49.12752 14922 ft 370 kts 101°
2026-04-29 05:25 26.41833 49.15597 14393 ft 370 kts 101°
2026-04-29 05:25 26.41502 49.18393 13866 ft 367 kts 100°
2026-04-29 05:25 26.41170 49.21201 13291 ft 363 kts 100°
2026-04-29 05:25 26.40842 49.23976 12753 ft 359 kts 101°
2026-04-29 05:26 26.40512 49.26755 12213 ft 355 kts 101°
2026-04-29 05:26 26.40190 49.29476 11702 ft 352 kts 101°
2026-04-29 05:26 26.39873 49.32170 11202 ft 348 kts 101°
2026-04-29 05:26 26.39558 49.34839 10703 ft 345 kts 101°
2026-04-29 05:27 26.39246 49.37483 10211 ft 342 kts 102°
2026-04-29 05:27 26.38637 49.42569 9674 ft 318 kts 103°
2026-04-29 05:27 26.38348 49.44970 9328 ft 308 kts 103°
2026-04-29 05:28 26.38061 49.47319 8925 ft 303 kts 102°
2026-04-29 05:28 26.37779 49.49627 8538 ft 299 kts 102°
2026-04-29 05:28 26.37500 49.51914 8144 ft 296 kts 102°
2026-04-29 05:28 26.37229 49.54099 7774 ft 293 kts 103°
2026-04-29 05:29 26.36681 49.56250 7393 ft 285 kts 120°
2026-04-29 05:29 26.35633 49.58091 7031 ft 279 kts 130°
2026-04-29 05:29 26.34466 49.59801 6666 ft 276 kts 131°
2026-04-29 05:29 26.33288 49.61478 6310 ft 274 kts 131°
2026-04-29 05:30 26.32120 49.63144 5943 ft 271 kts 130°
2026-04-29 05:30 26.30966 49.64796 5597 ft 269 kts 131°
2026-04-29 05:30 26.29820 49.66443 5381 ft 270 kts 132°
2026-04-29 05:30 26.28675 49.68092 5360 ft 262 kts 131°
2026-04-29 05:31 26.27621 49.69619 5390 ft 236 kts 130°
2026-04-29 05:31 26.26635 49.71045 5387 ft 231 kts 130°
2026-04-29 05:31 26.25659 49.72454 5378 ft 229 kts 130°
2026-04-29 05:31 26.24911 49.74031 5372 ft 235 kts 108°
2026-04-29 05:32 26.24912 49.75856 5378 ft 240 kts 82°
2026-04-29 05:32 26.25307 49.77662 5349 ft 240 kts 76°
2026-04-29 05:32 26.25764 49.79442 5108 ft 238 kts 76°
2026-04-29 05:32 26.26222 49.81209 4849 ft 237 kts 76°
2026-04-29 05:33 26.26885 49.82887 4593 ft 238 kts 56°
2026-04-29 05:33 26.28186 49.83981 4316 ft 237 kts 19°
2026-04-29 05:33 26.29805 49.84065 3956 ft 232 kts 351°
2026-04-29 05:33 26.31327 49.83657 3550 ft 218 kts 344°
2026-04-29 05:34 26.32713 49.83204 3176 ft 195 kts 343°
2026-04-29 05:34 26.33946 49.82798 2864 ft 173 kts 345°
2026-04-29 05:34 26.35032 49.82445 2617 ft 154 kts 346°
2026-04-29 05:34 26.36006 49.82130 2349 ft 138 kts 347°
2026-04-29 05:35 26.36891 49.81843 2083 ft 127 kts 347°
2026-04-29 05:35 26.37710 49.81572 1780 ft 119 kts 350°
2026-04-29 05:35 26.38468 49.81305 1579 ft 110 kts 348°
2026-04-29 05:35 26.39184 49.81033 1358 ft 113 kts 350°
2026-04-29 05:36 26.39973 49.80812 1162 ft 120 kts 352°
2026-04-29 05:36 26.40798 49.80603 1021 ft 122 kts 351°
2026-04-29 05:36 26.41614 49.80362 873 ft 121 kts 347°
2026-04-29 05:36 26.42424 49.80110 720 ft 121 kts 350°
2026-04-29 05:37 26.43243 49.79863 605 ft 122 kts 348°
2026-04-29 05:37 26.44066 49.79604 407 ft 123 kts 349°
2026-04-29 05:37 26.44889 49.79363 220 ft 121 kts 346°
2026-04-29 05:37 26.45693 49.79114 90 ft 119 kts 348°
2026-04-29 05:38 26.46475 49.78881 81 ft 108 kts 344°
2026-04-29 05:38 26.46986 49.78719 83 ft 49 kts 346°
2026-04-29 05:38 26.47245 49.78761 79 ft 36 kts 14°
2026-04-29 05:38 26.47446 49.78833 83 ft 12 kts 53°
2026-04-29 05:39 26.47471 49.78916 81 ft 12 kts 76°
2026-04-29 05:39 26.47493 49.79006 84 ft 13 kts 74°
2026-04-29 05:39 26.47495 49.79099 83 ft 13 kts 131°
2026-04-29 05:39 26.47395 49.79140 82 ft 18 kts 165°
2026-04-29 05:40 26.47264 49.79201 82 ft 21 kts 153°
2026-04-29 05:40 26.47125 49.79272 81 ft 23 kts 153°
2026-04-29 05:40 26.46986 49.79350 79 ft 19 kts 153°
2026-04-29 05:40 26.46883 49.79406 81 ft 10 kts 152°
2026-04-29 05:41 26.46876 49.79430 81 ft 4 kts 88°
2026-04-29 05:41 26.46882 49.79462 81 ft 5 kts 75°
2026-04-29 05:41 26.46886 49.79475 83 ft 0 kts 75°